Lid_Strength_Index
1 1 0 3 11 12 14 11 8 9 8 6 5 6 7 7 9 12 2 1 0 0 -0 -1 -1 -2 -2 -2 -2 -2 -2 -2 -2 -2 -2 -2 -2 -2 -2 -2 -2 -2 -2 -2 -2 -2 -2 -2 -2
2 1 2 6 13 16 14 10 10 8 6 5 5 6 7 8 4 4 3 1 0 -0 -0 -0 -1 -1 -1 -2 -2 -2 -2 -2 -2 -2 -2 -2 -1 -1 -1 -2 -2 -2 -2 -2 -2 -2 -2 -2 -2
1 1 7 10 13 15 14 9 8 6 5 6 6 4 6 7 4 3 1 0 -0 0 -0 -0 -1 -2 -1 -2 -2 -2 -2 -2 -2 -1 -1 -1 -1 -1 -1 -1 -1 -1 -2 -2 -2 -2 -2 -2 -2
2 4 6 12 14 11 10 8 7 7 5 5 6 8 4 2 3 2 1 0 0 0 -0 -1 -1 -2 -2 -2 -2 -2 -2 -2 -2 -2 -1 -1 -1 -1 -1 -1 -1 -1 -1 -1 -2 -2 -2 -2 -2
2 5 11 12 11 8 7 6 6 8 7 6 6 8 6 3 1 1 1 0 1 0 -0 -0 -1 -1 -2 -2 -2 -2 -2 -2 -1 -1 -1 -1 -1 -2 -1 -1 -1 -1 -1 -1 -1 -2 -2 -2 -2
7 7 12 13 11 8 6 6 7 7 7 7 7 7 6 2 2 1 1 1 0 0 -0 -0 -1 -1 -2 -2 -1 -2 -1 -1 -1 -2 -2 -2 -2 -2 -1 -1 -1 -1 -1 -1 -1 -1 -2 -2 -2
7 9 11 11 10 9 7 5 7 7 7 7 5 8 6 3 2 1 1 0 0 -0 0 -0 -0 -1 -2 -2 -2 -2 -2 -1 -1 -1 -1 -2 -1 -1 -1 -1 -1 -1 -1 -1 -1 -1 -2 -2 -2
6 7 10 10 10 10 5 5 5 6 7 4 4 9 8 4 1 1 1 1 1 0 0 0 -0 -0 -0 -0 -2 -2 -2 -2 -1 -1 -1 -1 -1 -1 -1 -2 -1 -1 -1 -1 -1 -1 -1 -2 -2
4 10 11 9 9 8 5 6 4 4 6 5 4 5 4 2 1 2 2 2 1 1 0 0 0 0 0 0 -1 -2 -2 -1 -1 -1 -1 -1 0 -0 -1 -1 -1 -1 -2 -1 -1 -2 -2 -2 -2
6 10 8 6 6 7 6 6 5 7 7 7 6 4 3 2 2 3 3 3 3 2 1 0 0 0 -0 -0 -0 0 -0 -0 -0 0 -0 -0 0 1 1 -1 -2 -2 -2 -2 -2 -2 -2 -1 -0
5 8 5 4 5 4 5 6 5 7 8 7 7 5 3 3 3 3 3 3 3 2 1 1 0 0 0 0 -0 -0 -0 -0 -0 -0 0 0 -1 -1 -0 -1 -1 -0 -1 -0 -1 -0 -0 0 -1
6 5 5 4 4 4 5 5 6 6 6 4 4 4 3 4 4 3 3 3 2 2 1 1 1 1 0 -0 -0 0 -0 -0 -0 -0 0 0 0 -0 -0 -0 0 -0 -0 -0 -1 0 0 0 -0
6 6 5 3 5 5 4 5 6 6 5 4 4 4 4 4 3 3 2 2 2 2 1 2 2 0 0 0 0 0 0 -0 0 -0 -0 -0 -0 -0 0 -0 -0 -0 -1 -0 -0 0 -0 -0 0
4 5 5 4 5 4 5 5 6 6 5 5 5 5 4 4 3 3 3 3 2 2 2 1 1 0 0 1 0 0 -0 0 -0 -0 -0 0 0 0 -0 -0 -0 -0 0 -0 -0 0 -0 -0 -0
5 7 6 5 6 5 5 8 8 5 5 6 5 5 4 4 3 3 3 3 2 2 1 1 1 0 0 0 0 0 -0 0 0 0 -0 0 0 0 2 -0 0 -0 -0 -1 -1 -0 -0 0 -0
7 7 10 6 6 5 6 10 8 5 5 6 5 5 4 4 3 2 2 2 1 1 2 1 0 1 0 0 0 0 0 -0 0 -0 -0 0 0 0 1 1 1 0 0 -0 0 0 1 2 1
8 11 9 8 5 5 7 9 7 5 6 6 6 5 5 4 4 3 2 2 2 1 1 1 1 1 1 0 0 0 0 0 0 -0 0 -0 -0 -0 1 -0 -0 0 0 0 1 0 1 2 1
11 10 9 9 6 6 8 10 7 6 6 6 6 6 5 5 4 3 2 2 1 1 1 2 1 1 1 0 0 0 0 0 0 0 -0 0 -0 0 1 0 1 0 0 1 1 1 0 1 1
8 9 10 8 6 7 9 9 8 7 6 6 6 6 6 6 4 3 2 2 2 2 2 2 1 1 1 1 2 2 2 1 1 0 0 0 -0 -0 0 0 0 0 1 1 1 1 2 1 1
9 10 10 8 6 7 10 10 8 7 7 6 6 6 6 6 5 4 3 2 2 2 2 2 1 1 1 1 1 1 1 1 1 0 0 0 0 0 0 0 0 0 1 1 1 1 2 2 1
10 11 10 9 7 7 10 12 10 7 6 6 5 5 6 6 5 4 4 3 2 2 2 2 1 1 1 1 1 1 1 1 1 1 1 0 0 -0 0 0 0 0 1 1 2 1 2 3 1
12 8 8 8 9 13 9 16 12 10 9 8 6 6 6 5 5 4 4 3 3 2 2 1 1 1 1 1 1 2 2 3 2 1 1 0 0 0 0 0 0 1 1 1 0 1 1 2 3
9 7 8 8 11 12 11 14 13 10 11 9 7 6 6 5 5 5 4 3 2 3 2 3 3 1 1 1 1 2 2 2 1 1 1 1 0 0 0 -0 0 0 1 1 1 1 1 1 2
6 8 9 11 12 14 11 12 15 12 10 9 7 6 5 5 5 4 3 3 3 2 2 1 2 2 1 1 1 1 2 2 2 2 2 1 1 1 0 0 0 0 0 1 1 1 1 1 1
8 12 15 15 15 15 11 14 13 9 7 8 8 7 5 5 5 5 4 4 3 3 2 2 2 4 1 1 1 1 1 1 2 2 2 2 2 1 1 0 0 0 0 0 1 1 1 1 1
10 12 15 17 16 15 12 16 13 9 7 7 6 6 5 5 5 5 4 4 3 3 2 2 2 2 2 1 1 1 1 1 1 1 1 1 1 1 1 0 0 0 0 0 0 1 1 1 1
10 12 10 14 14 14 15 13 10 8 8 7 7 6 6 5 5 5 4 4 3 3 3 2 2 2 2 2 1 1 1 1 2 1 1 1 1 0 0 0 0 0 0 0 0 1 1 1 1
9 9 13 12 17 18 15 15 15 11 11 9 8 7 6 5 5 5 4 4 3 3 2 2 2 2 2 1 1 1 1 1 1 1 1 1 1 1 1 1 1 1 0 0 1 1 1 1 1
9 11 10 10 12 16 18 17 10 11 9 9 8 7 6 5 5 5 4 4 3 2 3 2 2 2 2 2 1 2 1 1 1 1 1 1 1 1 1 1 1 1 1 0 1 1 1 1 1
9 9 10 14 14 13 13 16 8 9 8 8 8 6 6 5 5 4 4 4 4 4 3 4 4 2 2 1 1 1 1 1 1 1 1 1 1 0 1 1 2 1 2 1 1 1 1 1 2